Simultaneous Nadir Overpasses (SNOs) Predictions

Prediction of SNOs between GOES-17 and METOP-B Satellite Orbit:

Table of predicted SNOs for the next 14.0 days since TLE Epoch: 4/18/2025
Index Date Time (GOES-17) GOES-17 Lat,Lon METOP-B Lat,Lon Distance(km) Time Diff (sec)
1 04/19/2025 16:23:35 0.02,-104.40 0.82,-108.14 425.47 80
2 04/20/2025 16:00:16 0.02,-104.40 -0.23,-103.15 141.62 80
3 04/22/2025 04:19:18 -0.02,-104.34 -0.76,-107.78 391.98 80
4 04/23/2025 04:01:18 -0.02,-104.34 0.30,-102.79 175.34 80
5 04/24/2025 16:20:12 0.01,-104.39 0.67,-107.39 341.44 80
6 04/25/2025 15:56:52 0.01,-104.39 -0.39,-102.40 225.98 80
7 04/27/2025 04:15:54 -0.02,-104.33 -0.59,-107.03 307.42 80
8 04/28/2025 03:57:55 -0.02,-104.32 0.48,-102.04 259.86 80
9 04/29/2025 16:14:07 0.01,-104.37 0.53,-106.62 257.23 80
10 04/30/2025 15:53:29 0.01,-104.36 -0.60,-101.65 309.82 80
11 05/02/2025 04:15:10 -0.01,-104.30 -0.42,-106.27 224.07 80
